Date String (YYYY-MM-DD hh:mm:ss) UTC,Instrument flags,absolute air pressure of the measurement (hPa),sample flow rate (lpm),inlet stack bypass flow (lpm),air temperature of the measurement (°C),ambient temperature measured by the external sensor (°C),aerosol sample conditioner tube jacket temperature (°C),OPC LED temperature (°C),internal box temperature (°C),relative humidity of the measurement (%),span deviation,mass concentration of particles derived from Lorenz-Mie calculation of OPC scattering (μg/m³),mass concentration of particles derived from Lorenz-Mie calculation of OPC scattering (μg/m³),mass concentration of particles derived from Lorenz-Mie calculation of OPC scattering (μg/m³)
DateTimeUTC,F1_M11,P_M11,Q1_M11,Q2_M11,T1_M11,T2_M11,T3_M11,T4_M11,T5_M11,U1_M11,ZSPAN_M11,X0_M11,X2_M11,X1_M11
2024-02-27 20:00:00,SystemResetWarning,0817.8,5.00,000.00,018.2,017.5,000.0,026.9,020.0,18.3,0000.0,0006.53,0003.41,0002.84
2024-02-27 20:01:00,SystemResetWarning,0817.8,5.00,000.00,018.2,017.5,000.0,026.9,020.0,18.9,0000.0,0006.45,0003.42,0002.85
2024-02-27 20:02:00,SystemResetWarning,0817.8,5.00,000.00,018.2,017.5,000.0,026.9,020.0,20.2,0000.0,0006.63,0003.43,0002.83
2024-02-27 20:03:00,SystemResetWarning,0817.8,5.00,000.00,018.2,017.5,000.0,026.9,020.0,18.8,0000.0,0007.62,0003.44,0002.82
2024-02-27 20:04:00,SystemResetWarning,0817.7,5.00,000.00,018.2,017.5,000.0,026.9,020.0,17.9,0000.0,0007.78,0003.48,0002.82
2024-02-27 20:05:00,SystemResetWarning,0817.7,4.99,000.00,018.2,017.5,000.0,026.9,020.0,17.9,0000.0,0007.68,0003.47,0002.81
2024-02-27 20:06:00,SystemResetWarning,0817.7,4.99,000.00,018.2,017.4,000.0,026.9,020.0,18.3,0000.0,0007.74,0003.48,0002.81
2024-02-27 20:07:00,SystemResetWarning,0817.7,5.00,000.00,018.2,017.4,000.0,026.9,020.0,18.6,0000.0,0007.90,0003.49,0002.81
2024-02-27 20:08:00,SystemResetWarning,0817.8,5.01,000.00,018.2,017.4,000.0,026.9,020.0,18.4,0000.0,0008.24,0003.51,0002.83
2024-02-27 20:09:00,SystemResetWarning,0817.8,5.00,000.00,018.2,017.4,000.0,026.9,020.0,17.8,0000.0,0008.52,0003.50,0002.84
2024-02-27 20:10:00,SystemResetWarning,0817.7,4.99,000.00,018.2,017.4,000.0,026.9,020.0,18.2,0000.0,0008.84,0003.49,0002.86
2024-02-27 20:11:00,SystemResetWarning,0817.7,4.99,000.00,018.2,017.4,000.0,026.9,020.0,18.4,0000.0,0009.29,0003.51,0002.89
2024-02-27 20:12:00,SystemResetWarning,0817.7,5.00,000.00,018.2,017.4,000.0,026.9,020.0,17.7,0000.0,0009.60,0003.54,0002.90
2024-02-27 20:13:00,SystemResetWarning,0817.7,5.00,000.00,018.2,017.4,000.0,026.9,020.0,17.8,0000.0,0009.80,0003.55,0002.91
2024-02-27 20:14:00,SystemResetWarning,0817.6,5.01,000.00,018.2,017.4,000.0,026.9,020.0,17.8,0000.0,0009.53,0003.58,0002.92
2024-02-27 20:15:00,SystemResetWarning,0817.6,5.00,000.00,018.2,017.4,000.0,026.9,020.0,18.7,0000.0,0009.58,0003.57,0002.91
2024-02-27 20:16:00,SystemResetWarning,0817.7,5.00,000.00,018.2,017.4,000.0,026.9,020.0,18.8,0000.0,0009.61,0003.58,0002.90
2024-02-27 20:17:00,SystemResetWarning,0817.6,5.00,000.00,018.2,017.4,000.0,026.9,020.0,18.6,0000.0,0009.54,0003.57,0002.89
2024-02-27 20:18:00,SystemResetWarning,0817.6,4.99,000.00,018.2,017.4,000.0,026.9,020.0,18.4,0000.0,0009.43,0003.56,0002.88
2024-02-27 20:19:00,SystemResetWarning,0817.6,4.99,000.00,018.2,017.4,000.0,026.9,020.0,18.4,0000.0,0009.28,0003.56,0002.87
2024-02-27 20:20:00,SystemResetWarning,0817.6,5.00,000.00,018.2,017.4,000.0,026.9,020.0,18.3,0000.0,0009.04,0003.57,0002.86
2024-02-27 20:21:00,SystemResetWarning,0817.6,5.01,000.00,018.2,017.4,000.0,026.9,020.0,19.4,0000.0,0008.61,0003.55,0002.85
2024-02-27 20:22:00,SystemResetWarning,0817.6,5.01,000.00,018.2,017.3,000.0,026.9,020.0,19.2,0000.0,0008.15,0003.52,0002.83
2024-02-27 20:23:00,SystemResetWarning,0817.7,4.99,000.00,018.2,017.3,000.0,026.9,020.0,19.0,0000.0,0008.09,0003.48,0002.80
2024-02-27 20:24:00,SystemResetWarning,0817.7,4.98,000.00,018.2,017.3,000.0,026.9,020.0,18.7,0000.0,0008.14,0003.46,0002.77
2024-02-27 20:25:00,SystemResetWarning,0817.7,5.01,000.00,018.2,017.4,000.0,026.9,020.0,18.2,0000.0,0007.94,0003.42,0002.75
2024-02-27 20:26:00,SystemResetWarning,0817.7,5.01,000.00,018.2,017.4,000.0,026.9,020.0,18.0,0000.0,0007.73,0003.41,0002.73
2024-02-27 20:27:00,SystemResetWarning,0817.6,4.99,000.00,018.2,017.4,000.0,026.9,020.0,18.2,0000.0,0007.77,0003.39,0002.72
2024-02-27 20:28:00,SystemResetWarning,0817.6,5.00,000.00,018.2,017.4,000.0,026.9,020.0,19.1,0000.0,0008.07,0003.39,0002.72
2024-02-27 20:29:00,SystemResetWarning,0817.6,4.99,000.00,018.2,017.4,000.0,026.9,020.0,19.4,0000.0,0008.23,0003.42,0002.72
2024-02-27 20:30:00,SystemResetWarning,0817.7,5.00,000.00,018.2,017.4,000.0,026.9,020.0,19.1,0000.0,0008.42,0003.42,0002.71
2024-02-27 20:31:00,SystemResetWarning,0817.6,5.00,000.00,018.2,017.4,000.0,026.9,020.0,18.9,0000.0,0008.52,0003.43,0002.71
2024-02-27 20:32:00,SystemResetWarning,0817.6,5.01,000.00,018.2,017.3,000.0,026.9,020.0,18.6,0000.0,0008.58,0003.46,0002.69
2024-02-27 20:33:00,SystemResetWarning,0817.6,5.00,000.00,018.2,017.3,000.0,026.9,020.0,18.2,0000.0,0008.57,0003.49,0002.69
2024-02-27 20:34:00,SystemResetWarning,0817.6,4.99,000.00,018.2,017.3,000.0,026.9,020.0,17.7,0000.0,0008.31,0003.50,0002.71
2024-02-27 20:35:00,SystemResetWarning,0817.6,4.99,000.00,018.2,017.3,000.0,026.9,020.0,18.2,0000.0,0008.11,0003.50,0002.71
2024-02-27 20:36:00,SystemResetWarning,0817.8,5.00,000.00,018.2,017.3,000.0,026.9,020.0,18.8,0000.0,0008.12,0003.48,0002.72
2024-02-27 20:37:00,SystemResetWarning,0817.8,5.00,000.00,018.2,017.3,000.0,026.9,020.0,18.2,0000.0,0008.36,0003.44,0002.71
2024-02-27 20:38:00,SystemResetWarning,0817.8,5.00,000.00,018.2,017.4,000.0,026.9,020.0,17.8,0000.0,0008.26,0003.44,0002.70
2024-02-27 20:39:00,SystemResetWarning,0817.8,5.00,000.00,018.2,017.4,000.0,026.9,020.0,18.4,0000.0,0007.91,0003.42,0002.69
2024-02-27 20:40:00,SystemResetWarning,0817.8,5.00,000.00,018.2,017.4,000.0,026.9,020.0,18.0,0000.0,0007.73,0003.42,0002.69
2024-02-27 20:41:00,SystemResetWarning,0817.8,5.00,000.00,018.2,017.4,000.0,026.9,020.0,17.8,0000.0,0007.29,0003.41,0002.67
2024-02-27 20:42:00,SystemResetWarning,0817.9,5.00,000.00,018.2,017.4,000.0,026.9,020.0,18.2,0000.0,0007.39,0003.40,0002.67
2024-02-27 20:43:00,SystemResetWarning,0817.8,5.00,000.00,018.2,017.4,000.0,026.9,020.0,18.4,0000.0,0007.49,0003.37,0002.65
2024-02-27 20:44:00,SystemResetWarning,0817.8,5.00,000.00,018.2,017.5,000.0,026.8,020.0,18.0,0000.0,0007.56,0003.33,0002.65
2024-02-27 20:45:00,SystemResetWarning,0817.8,5.00,000.00,018.2,017.5,000.0,026.8,020.0,17.6,0000.0,0007.66,0003.34,0002.63
2024-02-27 20:46:00,SystemResetWarning,0817.8,5.00,000.00,018.2,017.5,000.0,026.8,020.0,17.7,0000.0,0007.99,0003.34,0002.62
2024-02-27 20:47:00,SystemResetWarning,0817.8,4.99,000.00,018.2,017.5,000.0,026.8,020.0,18.1,0000.0,0008.20,0003.37,0002.60
2024-02-27 20:48:00,SystemResetWarning,0817.7,4.99,000.00,018.2,017.5,000.0,026.8,020.0,18.4,0000.0,0007.93,0003.38,0002.58
2024-02-27 20:49:00,SystemResetWarning,0817.8,4.99,000.00,018.2,017.5,000.0,026.8,020.0,18.4,0000.0,0008.32,0003.37,0002.57
2024-02-27 20:50:00,SystemResetWarning,0817.8,5.00,000.00,018.2,017.5,000.0,026.8,020.0,18.6,0000.0,0008.35,0003.36,0002.56
2024-02-27 20:51:00,SystemResetWarning,0817.8,5.01,000.00,018.2,017.5,000.0,026.9,020.0,18.9,0000.0,0008.69,0003.33,0002.55
2024-02-27 20:52:00,SystemResetWarning,0817.8,5.01,000.00,018.2,017.5,000.0,026.9,020.0,19.1,0000.0,0008.68,0003.32,0002.54
2024-02-27 20:53:00,SystemResetWarning,0817.8,5.00,000.00,018.2,017.5,000.0,026.8,020.0,18.6,0000.0,0008.58,0003.30,0002.54
2024-02-27 20:54:00,SystemResetWarning,0817.8,4.99,000.00,018.2,017.5,000.0,026.8,020.0,18.8,0000.0,0008.54,0003.29,0002.55
2024-02-27 20:55:00,SystemResetWarning,0817.8,4.99,000.00,018.2,017.5,000.0,026.8,020.0,18.6,0000.0,0008.42,0003.26,0002.55
2024-02-27 20:56:00,SystemResetWarning,0817.8,5.00,000.00,018.2,017.5,000.0,026.8,020.0,18.7,0000.0,0008.31,0003.22,0002.53
2024-02-27 20:57:00,SystemResetWarning,0817.7,5.00,000.00,018.2,017.5,000.0,026.8,020.0,19.0,0000.0,0007.94,0003.20,0002.52
2024-02-27 20:58:00,SystemResetWarning,0817.7,5.00,000.00,018.2,017.5,000.0,026.8,020.0,19.5,0000.0,0007.49,0003.18,0002.52
2024-02-27 20:59:00,SystemResetWarning,0817.7,5.00,000.00,018.2,017.5,000.0,026.8,020.0,18.5,0000.0,0007.66,0003.18,0002.54
